星链-6265 (STARLINK-6265 )

导读

STARLINK-6265是美国太空探索技术公司(SpaceX)“星链”星座的卫星,于2023年5月14日发射升空,归属“星链”第二代部署批次。该卫星主要为全球提供高速低延迟互联网服务,尤其覆盖偏远、基础设施匮乏区域,也是“星链”扩张太空互联网组网规模,完善全球覆盖能力的重要组成部分。

基本信息
目录编号:
56557
目录名称:
STARLINK-6265
国际标识:
2023-065BG
轨道中心:
EARTH
卫星名称:
星链-6265
卫星全名:
星链-6265 (STARLINK-6265 )
卫星状态:
在轨 (已飞行1127 天)
发射日期:
2023-05-14 UTC
国别 :
美国 (US)
星等 :
--
轨道信息
数据来源 国际轨道数据
星历时间: 2026-06-14T06:47:46+0800
21小时前
查看轨道信息
半长轴: 6861.201km
偏心率: 0.0001076
轨道倾角: 43.004°
近地点辐角 261.865°
升交点赤经 39.971°
平近点角 98.208°
近地点: 482.325km
远地点: 483.803km
周期: 94.267分钟
每日圈数: 15.275751
详细信息
固有亮度:
5
最大亮度:
2.5
卫星平台:
Starlink v1.5
覆盖范围:
全球
运营商:
太空探索技术公司
运营商所在国:
美国
制造商(研发单位):
太空探索技术公司
制造商所在国:
美国
使用方式:
暂无
卫星简介
星链(Starlink)计划是由太空探索技术公司(SpaceX)提出的一个巨型低轨卫星互联网星座项目,计划在2019年至2024年间在太空搭建由约1.2万颗卫星组成的“星链”网络,其中1584颗将部署在地球上空550千米处的近地轨道,并从2020年开始工作。该卫星仍在工作。
2D轨道图
3D轨道图
轨道高度分析图
轨道倾角分析图
轨道综合分析图
查看轨道综合分析图